This is the latest recevied weather packets stored in our database for station/object VA7NEZ. If no packets are shown the sender has not sent any weather packets the latest 10 day(s).
| Time | Temp. | Humidity | Pressure | Rain* | Wind** | Luminosity | Snow |
|---|---|---|---|---|---|---|---|
| 1777815481 | 6.67° C | 72% | 1017.6 hPa | 0 mm | - | - | - |
| 1777814983 | 0° C | 100% | 1017.6 hPa | 0 mm | - | - | - |
| 1777814426 | 6.67° C | 74% | 1017.5 hPa | 0 mm | - | - | - |
| 1777813841 | 6.67° C | 77% | 1017.3 hPa | 0 mm | - | - | - |
| 1777813347 | 6.67° C | 77% | 1017.3 hPa | 0 mm | - | - | - |
| 1777812276 | 6.67° C | 72% | 1017.4 hPa | 0 mm | - | - | - |
| 1777811107 | 6.67° C | 70% | 1017.2 hPa | 0 mm | - | - | - |
| 1777810511 | 6.67° C | 70% | 1017.2 hPa | 0 mm | - | - | - |
| 1777809936 | 7.22° C | 71% | 1017.3 hPa | 0 mm | - | - | - |
| 1777809416 | 7.22° C | 70% | 1017.3 hPa | 0 mm | - | - | - |
| 1777808867 | 7.22° C | 72% | 1017.4 hPa | 0 mm | - | - | - |
| 1777808291 | 0° C | 100% | 1017.2 hPa | 0 mm | - | - | - |
| 1777807217 | 7.78° C | 70% | 1017.2 hPa | 0 mm | - | - | - |
| 1777806156 | 7.78° C | 69% | 1017.1 hPa | 0 mm | - | - | - |
| 1777805556 | 7.78° C | 67% | 1017 hPa | 0 mm | - | - | - |
| 1777805071 | 8.33° C | 69% | 1017.1 hPa | 0 mm | - | - | - |
| 1777804567 | 8.33° C | 71% | 1017.1 hPa | 0 mm | - | - | - |
| 1777804012 | 8.33° C | 65% | 1017.1 hPa | 0 mm | - | - | - |
| 1777802897 | 0° C | 100% | 1017.1 hPa | 0 mm | - | - | - |
| 1777801857 | 9.44° C | 64% | 1017 hPa | 0 mm | - | - | - |
| 1777801321 | 9.44° C | 63% | 1017.2 hPa | 0 mm | - | - | - |
| 1777800242 | 10° C | 64% | 1017.3 hPa | 0 mm | - | - | - |
| 1777799683 | 0° C | 100% | 1017.1 hPa | 0 mm | - | - | - |
| 1777799167 | 10° C | 61% | 1017.1 hPa | 0 mm | - | - | - |
| 1777798621 | 10° C | 63% | 1017 hPa | 0 mm | - | - | - |
* Rain latest hour (hover to see other rain measurements)
** Current wind speed in m/s (hover to see current wind gust speed)